Weather History for Pittsburgh Allegheny Co., PA

Change the Weather History Date:

Thursday, February 28, 2013

  Actual Average Record
Temperature  
Mean Temperature 32 °F -  
Max Temperature 34 °F 45 °F 61 °F (2011)
Min Temperature 30 °F 26 °F 3 °F (2014)
Degree Days  
Heating Degree Days 33    
Moisture  
Dew Point 30 °F    
Average Humidity 89    
Maximum Humidity 100    
Minimum Humidity 80    
Precipitation  
Precipitation 0.06 in - - ()
Sea Level Pressure  
Sea Level Pressure 29.68 in    
Wind  
Wind Speed 10 mph (WSW)    
Max Wind Speed 13 mph    
Max Gust Speed 20 mph    
Visibility 6 miles    
Events Snow    
Averages and records for this station are not official NWS values.
T = Trace of Precipitation, MM = Missing Value Source: NWS Daily Summary

Daily Weather History Graph

Daily Weather History Graph

Search for Another Location

Airport:

Trip Planner

Search our weather history database for the weather conditions in past years. The results will help you decide how hot, cold, wet, or windy it might be!

Date:

Astronomy

Feb. 28, 2013 Rise Set
Actual Time 6:54 AM EST 6:10 PM EST
Civil Twilight 6:27 AM EST 6:37 PM EST
Nautical Twilight 5:55 AM EST 7:09 PM EST
Astronomical Twilight 5:24 AM EST 7:40 PM EST
Moon 9:36 PM EST (2/28) 8:02 AM EST (2/28)
Length of Visible Light 12h 10m
Length of Day
11h 15m
Waning Gibbous, 91% of the Moon is Illuminated
Feb 28
Waning Gibbous
Mar 4
Last Quarter
Mar 11
New
Mar 19
First Quarter
Mar 27
Full

Hourly Weather History & Observations

Time (EST) Temp. Windchill Dew Point Humidity Pressure Visibility Wind Dir Wind Speed Gust Speed Precip Events Conditions
12:42 AM 33.8 °F 25.8 °F 30.2 °F 87% 29.62 in 10.0 mi WSW 10.4 mph - N/A   Overcast
12:53 AM 33.1 °F 25.5 °F 30.0 °F 89% 29.66 in 10.0 mi SW 9.2 mph - N/A   Overcast
1:53 AM 32.0 °F 22.5 °F 28.9 °F 88% 29.67 in 10.0 mi WSW 12.7 mph - 0.00 in   Overcast
2:00 AM 32.0 °F 23.0 °F 28.4 °F 87% 29.62 in 10.0 mi WSW 11.5 mph - N/A   Mostly Cloudy
2:53 AM 32.0 °F 25.6 °F 28.9 °F 88% 29.65 in 10.0 mi SW 6.9 mph - N/A   Overcast
3:09 AM 32.0 °F 24.8 °F 28.4 °F 87% 29.61 in 10.0 mi SW 8.1 mph - N/A   Overcast
3:53 AM 32.0 °F 24.8 °F 28.0 °F 85% 29.64 in 10.0 mi SW 8.1 mph - N/A   Overcast
4:53 AM 32.0 °F 24.2 °F 28.9 °F 88% 29.64 in 10.0 mi SSW 9.2 mph - N/A   Overcast
5:53 AM 32.0 °F 24.2 °F 28.0 °F 85% 29.64 in 10.0 mi SW 9.2 mph - N/A   Overcast
6:48 AM 32.0 °F 23.0 °F 28.4 °F 87% 29.60 in 10.0 mi WSW 11.5 mph - N/A   Overcast
6:53 AM 32.0 °F 24.2 °F 28.0 °F 85% 29.64 in 10.0 mi WSW 9.2 mph - N/A   Overcast
7:07 AM 32.0 °F 25.6 °F 28.4 °F 87% 29.60 in 10.0 mi WSW 6.9 mph - N/A   Overcast
7:36 AM 32.0 °F 24.2 °F 28.4 °F 87% 29.60 in 8.0 mi SW 9.2 mph - 0.00 in   Overcast
7:53 AM 32.0 °F 25.6 °F 28.0 °F 85% 29.65 in 7.0 mi SW 6.9 mph - 0.00 in   Overcast
8:53 AM 32.0 °F 23.0 °F 28.0 °F 85% 29.66 in 10.0 mi WSW 11.5 mph - N/A   Overcast
9:00 AM 32.0 °F 22.5 °F 26.6 °F 80% 29.61 in 10.0 mi WSW 12.7 mph - N/A   Overcast
9:12 AM 32.0 °F 22.5 °F 26.6 °F 80% 29.61 in 10.0 mi SW 12.7 mph 18.4 mph N/A   Overcast
9:53 AM 32.0 °F 23.6 °F 28.0 °F 85% 29.67 in 4.0 mi SW 10.4 mph - 0.00 in Snow Light Snow
10:53 AM 32.0 °F 24.2 °F 28.0 °F 85% 29.68 in 3.0 mi SW 9.2 mph - 0.00 in Snow Light Snow
11:06 AM 32.0 °F 23.6 °F 28.4 °F 87% 29.63 in 3.0 mi WSW 10.4 mph - 0.00 in Snow Light Snow
11:24 AM 30.2 °F 21.9 °F 28.4 °F 93% 29.63 in 2.0 mi SW 9.2 mph - 0.00 in Snow Light Snow
11:42 AM 32.0 °F 23.6 °F 28.4 °F 87% 29.63 in 2.0 mi SW 10.4 mph - 0.00 in Snow Light Snow
11:48 AM 32.0 °F 23.6 °F 30.2 °F 93% 29.63 in 1.0 mi SSW 10.4 mph - 0.00 in Snow Light Snow
11:53 AM 32.0 °F 24.8 °F 30.0 °F 92% 29.68 in 1.0 mi SW 8.1 mph - 0.01 in Snow Light Snow
12:08 PM 32.0 °F 23.0 °F 30.2 °F 93% 29.63 in 1.0 mi SW 11.5 mph - 0.01 in Snow Light Snow
12:15 PM 32.0 °F 24.2 °F 30.2 °F 93% 29.63 in 1.2 mi SW 9.2 mph - 0.01 in Snow Light Snow
12:26 PM 33.8 °F 25.8 °F 30.2 °F 87% 29.62 in 2.0 mi SW 10.4 mph - 0.01 in Snow Light Snow
12:37 PM 32.0 °F 23.6 °F 30.2 °F 93% 29.62 in 1.8 mi SW 10.4 mph - 0.01 in Snow Light Snow
12:53 PM 33.1 °F 23.9 °F 30.9 °F 92% 29.67 in 1.0 mi SW 12.7 mph - 0.01 in Snow Light Snow
1:53 PM 33.1 °F 24.9 °F 30.9 °F 92% 29.67 in 1.0 mi SW 10.4 mph - 0.01 in Snow Light Snow
2:00 PM 33.8 °F 25.3 °F 30.2 °F 87% 29.62 in 1.0 mi SW 11.5 mph - 0.01 in Snow Light Snow
2:12 PM 32.0 °F 25.6 °F 30.2 °F 93% 29.62 in 0.8 mi SW 6.9 mph - 0.01 in Snow Light Snow
2:23 PM 33.8 °F 24.8 °F 30.2 °F 87% 29.61 in 1.2 mi SW 12.7 mph - 0.01 in Snow Light Snow
2:53 PM 33.1 °F 24.9 °F 30.9 °F 92% 29.67 in 1.2 mi WSW 10.4 mph - 0.02 in Snow Light Snow
3:21 PM 33.8 °F 25.8 °F 30.2 °F 87% 29.63 in 1.2 mi WSW 10.4 mph - 0.00 in Snow Light Snow
3:53 PM 33.1 °F 24.4 °F 30.9 °F 92% 29.68 in 2.5 mi WSW 11.5 mph - 0.01 in Snow Light Snow
3:58 PM 33.8 °F 25.8 °F 30.2 °F 87% 29.63 in 3.0 mi WSW 10.4 mph - 0.00 in Snow Light Snow
4:53 PM 33.1 °F 23.9 °F 30.9 °F 92% 29.69 in 2.0 mi West 12.7 mph - 0.00 in   Overcast
5:00 PM 33.8 °F 25.3 °F 30.2 °F 87% 29.65 in 4.0 mi West 11.5 mph - N/A   Overcast
5:53 PM 33.1 °F 23.9 °F 30.9 °F 92% 29.72 in 10.0 mi West 12.7 mph 18.4 mph N/A   Overcast
6:19 PM 33.8 °F 26.4 °F 30.2 °F 87% 29.68 in 10.0 mi WNW 9.2 mph 17.3 mph N/A   Overcast
6:43 PM 33.8 °F 27.0 °F 30.2 °F 87% 29.70 in 10.0 mi WNW 8.1 mph 19.6 mph N/A   Overcast
6:53 PM 34.0 °F 26.0 °F 30.9 °F 89% 29.75 in 10.0 mi WNW 10.4 mph 18.4 mph N/A   Overcast
7:05 PM 33.8 °F 27.0 °F 30.2 °F 87% 29.71 in 10.0 mi WNW 8.1 mph - N/A   Overcast
7:16 PM 33.8 °F 27.0 °F 30.2 °F 87% 29.72 in 10.0 mi WNW 8.1 mph - N/A   Overcast
7:53 PM 33.1 °F 26.9 °F 30.9 °F 92% 29.79 in 10.0 mi WNW 6.9 mph - N/A   Overcast
8:53 PM 33.1 °F 26.1 °F 30.9 °F 92% 29.81 in 9.0 mi NW 8.1 mph - N/A   Overcast
9:19 PM 32.0 °F 24.8 °F 30.2 °F 93% 29.77 in 4.0 mi West 8.1 mph - 0.00 in Snow Light Snow
9:26 PM 32.0 °F 24.8 °F 30.2 °F 93% 29.77 in 3.0 mi WNW 8.1 mph - 0.00 in Snow Light Snow
9:34 PM 32.0 °F 24.8 °F 30.2 °F 93% 29.77 in 5.0 mi WNW 8.1 mph - 0.00 in   Overcast
9:53 PM 32.0 °F 24.8 °F 30.9 °F 96% 29.82 in 8.0 mi WNW 8.1 mph - 0.00 in   Overcast
10:29 PM 32.0 °F 24.2 °F 30.2 °F 93% 29.77 in 10.0 mi WNW 9.2 mph - 0.00 in   Overcast
10:53 PM 32.0 °F 24.2 °F 30.0 °F 92% 29.82 in 6.0 mi NW 9.2 mph - 0.00 in Snow Light Snow
11:01 PM 32.0 °F 24.8 °F 30.2 °F 93% 29.77 in 6.0 mi WNW 8.1 mph - 0.00 in Snow Light Snow
11:12 PM 32.0 °F 24.8 °F 30.2 °F 93% 29.77 in 4.0 mi NW 8.1 mph - 0.00 in Snow Light Snow
11:28 PM 32.0 °F 24.8 °F 30.2 °F 93% 29.77 in 1.8 mi WNW 8.1 mph - 0.00 in Snow Light Snow
11:49 PM 30.2 °F 24.3 °F 30.2 °F 100% 29.77 in 5.0 mi Variable 5.8 mph - 0.00 in Snow Light Snow
11:53 PM 30.9 °F 24.3 °F 30.0 °F 96% 29.82 in 5.0 mi NW 6.9 mph - 0.00 in Snow Light Snow